Botev Vrah Top/Sommet, Bulgaria
Current Conditions -  °F | °C
As of 7:00 AM on Sunday 26 Oct 2014 (Local Time) from LBPD Reporting Station
Light Rain Light Rain  
Wind Chill: 30°   Ceiling: 4200
Heat Index: 37°   Visibility: 6mi
Dew Point: 37°   Wind: 11mph
Humidity: 100%   Direction: 300°WNW
Pressure: 30.24"   Gusts: NA
Location:  42.67°N, 24.83°E
Report Text: LBPD 260400Z 30005MPS 9999 -RA SCT018 OVC042 03/03 Q1024 RERA NOSIG
Loading
Personal Weather Stations






























Interactive Weather Map
Tropical Storm Tracking
New forecast layout! Learn more

10-Day Weather Forecast

Advertisements
Track Severe Weather on mobile